Date String (YYYY-MM-DD hh:mm:ss) UTC,Instrument flags,Ambient pressure (hPa),Sample flow (lpm),Bypass flow (lpm),Sample temperature (°C),Ambient temperature (°C),ASC tube jacket temperature (°C),LED temperature (°C),Box temperature (°C),Sample RH (%),Span deviation,Mass concentration (μg/m³),Mass concentration (μg/m³),Mass concentration (μg/m³)
DateTimeUTC,F1_M11,P_M11,Q1_M11,Q2_M11,T1_M11,T2_M11,T3_M11,T4_M11,T5_M11,U1_M11,ZSPAN_M11,X0_M11,X2_M11,X1_M11
2023-05-01 00:00:00,,0828.9,5.00,0.00,30.5,29.3,00.0,38.9,32.0,13.9,0000.0,0017.98,0005.86,0004.07
2023-05-01 00:01:00,,0828.8,5.01,0.00,30.5,29.3,00.0,38.9,32.0,13.7,0000.0,0018.13,0005.91,0004.09
2023-05-01 00:02:00,,0828.8,4.99,0.00,30.5,29.0,00.0,38.9,32.0,13.6,0000.0,0017.29,0005.94,0004.12
2023-05-01 00:03:00,,0828.7,4.99,0.00,30.5,27.1,00.0,38.8,31.8,13.7,0000.0,0016.98,0005.97,0004.14
2023-05-01 00:04:00,,0828.8,5.01,0.00,30.4,26.4,00.0,38.7,31.7,13.7,0000.0,0017.20,0006.00,0004.18
2023-05-01 00:05:00,,0828.8,5.00,0.00,30.3,26.5,00.0,38.7,31.6,13.7,0000.0,0016.87,0006.01,0004.21
2023-05-01 00:06:00,,0828.8,4.99,0.00,30.3,26.8,00.0,38.7,31.5,13.7,0000.0,0017.34,0005.99,0004.22
2023-05-01 00:07:00,,0828.8,4.99,0.00,30.2,27.2,00.0,38.7,31.6,14.0,0000.0,0017.23,0005.99,0004.22
2023-05-01 00:08:00,,0828.8,4.99,0.00,30.2,27.5,00.0,38.7,31.6,14.2,0000.0,0016.55,0006.00,0004.22
2023-05-01 00:09:00,,0828.8,5.01,0.00,30.2,27.8,00.0,38.7,31.7,14.0,0000.0,0015.07,0006.05,0004.24
2023-05-01 00:10:00,,0828.9,5.01,0.00,30.2,28.0,00.0,38.7,31.7,14.1,0000.0,0014.37,0006.07,0004.25
2023-05-01 00:11:00,,0828.8,4.99,0.00,30.2,28.2,00.0,38.7,31.7,14.3,0000.0,0014.29,0006.13,0004.26
2023-05-01 00:12:00,,0829.0,4.99,0.00,30.2,28.3,00.0,38.7,31.7,13.9,0000.0,0014.66,0006.17,0004.28
2023-05-01 00:13:00,,0828.9,5.00,0.00,30.2,28.5,00.0,38.7,31.7,13.7,0000.0,0015.02,0006.21,0004.33
2023-05-01 00:14:00,,0828.9,5.00,0.00,30.2,28.6,00.0,38.7,31.8,14.0,0000.0,0015.24,0006.23,0004.37
2023-05-01 00:15:00,,0828.9,5.00,0.00,30.2,28.7,00.0,38.7,31.7,13.9,0000.0,0015.27,0006.25,0004.40
2023-05-01 00:16:00,,0828.8,5.01,0.00,30.2,28.8,00.0,38.7,31.7,13.9,0000.0,0014.95,0006.27,0004.43
2023-05-01 00:17:00,,0828.8,4.99,0.00,30.3,28.8,00.0,38.7,31.8,13.8,0000.0,0014.88,0006.35,0004.44
2023-05-01 00:18:00,,0828.7,5.00,0.00,30.3,28.9,00.0,38.7,31.8,13.7,0000.0,0015.23,0006.46,0004.48
2023-05-01 00:19:00,,0828.8,5.00,0.00,30.3,28.9,00.0,38.7,31.8,13.7,0000.0,0015.72,0006.44,0004.51
2023-05-01 00:20:00,,0828.7,5.00,0.00,30.3,29.0,00.0,38.7,31.9,13.9,0000.0,0015.70,0006.40,0004.52
2023-05-01 00:21:00,,0828.7,4.99,0.00,30.3,29.0,00.0,38.7,31.9,13.6,0000.0,0016.32,0006.41,0004.57
2023-05-01 00:22:00,,0828.7,4.99,0.00,30.3,29.1,00.0,38.7,31.9,13.6,0000.0,0016.68,0006.36,0004.63
2023-05-01 00:23:00,,0828.7,5.00,0.00,30.3,29.1,00.0,38.7,31.9,13.7,0000.0,0016.21,0006.31,0004.66
2023-05-01 00:24:00,,0828.7,5.01,0.00,30.4,29.1,00.0,38.7,31.9,13.8,0000.0,0015.73,0006.27,0004.67
2023-05-01 00:25:00,,0828.7,5.01,0.00,30.4,29.1,00.0,38.8,31.9,14.0,0000.0,0015.45,0006.28,0004.68
2023-05-01 00:26:00,,0828.8,5.00,0.00,30.4,29.1,00.0,38.8,31.9,14.0,0000.0,0015.61,0006.31,0004.70
2023-05-01 00:27:00,,0828.7,4.99,0.00,30.4,29.1,00.0,38.8,31.9,13.6,0000.0,0015.48,0006.32,0004.70
2023-05-01 00:28:00,,0828.7,5.00,0.00,30.4,29.1,00.0,38.8,31.9,13.4,0000.0,0014.88,0006.30,0004.72
2023-05-01 00:29:00,,0828.7,5.00,0.00,30.4,29.1,00.0,38.8,31.9,13.4,0000.0,0014.26,0006.21,0004.71
2023-05-01 00:30:00,,0828.7,4.99,0.00,30.4,29.1,00.0,38.8,31.9,13.4,0000.0,0013.37,0006.23,0004.70
2023-05-01 00:31:00,,0828.7,5.00,0.00,30.4,29.1,00.0,38.8,32.0,13.4,0000.0,0013.46,0006.26,0004.70
2023-05-01 00:32:00,,0828.7,5.01,0.00,30.4,29.1,00.0,38.8,32.0,13.6,0000.0,0013.09,0006.26,0004.69
2023-05-01 00:33:00,,0828.7,5.00,0.00,30.4,29.1,00.0,38.8,32.0,13.5,0000.0,0012.68,0006.26,0004.67
2023-05-01 00:34:00,,0828.7,5.00,0.00,30.4,29.2,00.0,38.8,32.0,13.6,0000.0,0012.68,0006.32,0004.66
2023-05-01 00:35:00,,0828.7,4.99,0.00,30.4,28.8,00.0,38.8,31.9,13.4,0000.0,0012.93,0006.40,0004.65
2023-05-01 00:36:00,,0828.6,4.99,0.00,30.4,27.0,00.0,38.7,31.7,13.3,0000.0,0013.39,0006.45,0004.64
2023-05-01 00:37:00,,0828.6,5.01,0.00,30.3,26.1,00.0,38.6,31.5,13.4,0000.0,0013.57,0006.48,0004.64
2023-05-01 00:38:00,,0828.6,5.01,0.00,30.2,26.2,00.0,38.6,31.4,13.5,0000.0,0014.76,0006.47,0004.62
2023-05-01 00:39:00,,0828.6,5.00,0.00,30.2,26.6,00.0,38.6,31.4,13.6,0000.0,0015.82,0006.35,0004.58
2023-05-01 00:40:00,,0828.6,4.98,0.00,30.1,27.0,00.0,38.6,31.4,13.7,0000.0,0016.38,0006.36,0004.57
2023-05-01 00:41:00,,0828.6,5.00,0.00,30.1,27.3,00.0,38.6,31.5,13.9,0000.0,0016.30,0006.31,0004.55
2023-05-01 00:42:00,,0828.5,5.00,0.00,30.1,27.6,00.0,38.6,31.5,14.2,0000.0,0017.29,0006.32,0004.54
2023-05-01 00:43:00,,0828.5,5.00,0.00,30.1,27.9,00.0,38.6,31.6,14.3,0000.0,0018.38,0006.25,0004.49
2023-05-01 00:44:00,,0828.5,5.00,0.00,30.1,28.1,00.0,38.6,31.6,13.9,0000.0,0019.09,0006.31,0004.43
2023-05-01 00:45:00,,0828.5,5.01,0.00,30.1,28.2,00.0,38.6,31.6,13.8,0000.0,0019.10,0006.23,0004.39
2023-05-01 00:46:00,,0828.6,4.99,0.00,30.1,28.3,00.0,38.6,31.6,13.9,0000.0,0019.76,0006.15,0004.35
2023-05-01 00:47:00,,0828.6,4.99,0.00,30.1,28.4,00.0,38.6,31.6,13.9,0000.0,0019.98,0006.09,0004.29
2023-05-01 00:48:00,,0828.6,5.01,0.00,30.1,28.4,00.0,38.6,31.6,14.0,0000.0,0020.45,0006.01,0004.21
2023-05-01 00:49:00,,0828.5,5.00,0.00,30.1,28.5,00.0,38.6,31.6,14.0,0000.0,0020.17,0005.97,0004.13
2023-05-01 00:50:00,,0828.6,4.98,0.00,30.1,28.6,00.0,38.6,31.6,13.9,0000.0,0019.06,0005.92,0004.06
2023-05-01 00:51:00,,0828.6,5.00,0.00,30.1,28.6,00.0,38.6,31.6,13.8,0000.0,0018.07,0005.80,0004.01
2023-05-01 00:52:00,,0828.6,5.01,0.00,30.1,28.7,00.0,38.6,31.7,14.1,0000.0,0018.09,0005.73,0003.95
2023-05-01 00:53:00,,0828.6,4.99,0.00,30.1,28.7,00.0,38.6,31.7,14.1,0000.0,0017.30,0005.71,0003.90
2023-05-01 00:54:00,,0828.5,4.99,0.00,30.2,28.8,00.0,38.6,31.7,14.0,0000.0,0016.36,0005.65,0003.88
2023-05-01 00:55:00,,0828.5,5.01,0.00,30.2,28.8,00.0,38.6,31.7,14.1,0000.0,0015.84,0005.57,0003.87
2023-05-01 00:56:00,,0828.5,5.01,0.00,30.2,28.8,00.0,38.6,31.7,14.1,0000.0,0016.78,0005.51,0003.84
2023-05-01 00:57:00,,0828.5,4.98,0.00,30.2,28.9,00.0,38.6,31.7,13.9,0000.0,0016.54,0005.45,0003.79
2023-05-01 00:58:00,,0828.5,5.00,0.00,30.2,28.9,00.0,38.6,31.8,14.0,0000.0,0015.81,0005.39,0003.77
2023-05-01 00:59:00,,0828.6,5.01,0.00,30.2,28.9,00.0,38.6,31.7,14.1,0000.0,0015.44,0005.40,0003.75
